Location: 22
(39.7117°N, 89.5929°W)
Time: 08:21:19
(UTC-05:00)

ARIANE 6 FM1 Upper Stage - Pass Details

Date: 11 April 2026
Orbit: 526 x 601 km, 62.0° (Epoch: 18 May)

Event Time Altitude Azimuth Distance (km) Brightness Sun altitude
Rises 04:01:03 0° 331° (NNW) 2,666 6.2 -26.2°
Reaches altitude 10° 04:03:24 10° 342° (NNW) 1,772 5.4 -25.8°
Maximum altitude 04:07:01 33° 47° (NE) 895 4.2 -25.3°
Drops below altitude 10° 04:10:39 10° 113° (ESE) 1,773 5.6 -24.7°
Sets 04:13:00 0° 123° (ESE) 2,666 6.4 -24.3°
